Wind_Speed
11 10 10 9 9 8 9 9 9 9 9 9 9 9 10 9 8 9 9 8 8 7 6 5 6 6 5 5 5 5 5 4 4 4 4 4 5 5 5 6 6 7 8
10 10 10 9 9 9 9 9 9 10 10 8 8 9 9 9 9 9 9 9 9 9 8 7 7 6 6 6 6 6 6 5 5 5 6 6 6 6 7 7 7 8 9
10 10 10 10 9 9 9 9 9 10 9 9 9 9 8 9 9 9 9 9 9 9 8 8 7 7 7 7 7 7 7 7 7 7 7 7 7 8 8 8 9 9 10
11 10 10 11 10 10 9 10 10 10 9 9 9 9 9 9 9 10 10 10 10 10 10 9 9 8 8 8 9 9 9 9 9 9 9 9 9 10 9 10 11 11 11
12 11 11 11 11 10 10 11 10 10 10 10 10 10 10 10 10 10 10 10 11 11 11 11 11 10 9 10 11 11 11 11 11 11 11 11 12 12 12 11 12 12 13
12 12 11 12 12 11 11 11 11 11 11 11 11 12 12 12 12 11 11 12 12 12 12 12 12 11 11 12 12 13 13 13 14 14 14 13 13 13 13 14 14 14 14
13 13 13 12 12 12 12 11 11 11 11 11 12 13 13 14 13 13 13 13 14 14 14 14 13 13 13 13 14 14 14 15 15 15 15 15 14 15 15 15 16 16 16
14 14 14 13 12 12 12 12 12 12 12 12 12 13 13 14 14 14 14 15 15 16 16 15 15 15 15 15 15 16 16 16 16 16 15 16 16 16 17 17 17 18 18
16 15 14 14 13 12 13 13 13 13 14 14 14 14 14 14 14 14 15 16 17 17 17 16 16 16 16 15 16 16 17 17 17 16 16 17 17 17 17 18 18 19 18
16 16 15 15 15 14 15 15 15 15 15 15 16 16 16 16 15 15 16 17 17 18 17 17 17 17 16 16 16 16 16 17 17 17 18 18 18 18 18 18 19 19 20
17 16 16 16 16 16 16 16 17 17 17 17 17 17 17 17 17 17 17 18 18 18 18 18 18 19 18 17 17 17 18 18 19 19 20 20 20 21 20 19 20 20 21
19 18 18 18 18 18 18 18 18 18 18 18 18 18 18 18 18 18 18 19 20 20 20 20 20 20 20 19 19 19 19 20 20 21 22 22 23 23 22 21 21 22 23
21 20 19 19 19 19 19 19 20 19 19 20 20 20 20 20 20 20 20 21 21 22 22 22 21 21 21 21 22 22 22 22 23 23 23 24 24 24 24 24 24 24 24
22 21 20 20 20 20 20 21 21 20 21 21 21 21 21 21 21 21 22 23 23 23 23 23 23 23 23 23 24 24 24 25 25 25 26 25 25 26 26 25 25 25 25
22 22 22 21 21 21 21 21 21 21 22 22 23 23 23 23 23 23 24 24 24 24 24 24 24 25 25 25 25 26 26 26 26 26 26 26 26 26 26 26 26 27 26
24 24 23 22 21 21 21 22 22 22 22 23 23 23 23 24 25 25 25 25 26 25 25 25 25 26 26 26 27 27 27 27 27 28 27 27 26 26 26 27 27 28 27
26 25 24 23 23 23 23 23 23 23 23 24 24 25 25 25 26 27 27 27 27 27 27 27 27 27 27 27 28 29 29 29 29 29 28 28 27 27 28 28 28 29 29
26 25 25 24 24 24 25 24 24 25 25 26 26 26 27 27 28 28 29 29 29 29 29 29 29 29 29 29 30 30 30 30 30 30 29 28 29 29 29 30 30 29 29
26 25 25 25 25 25 26 26 25 26 26 27 27 28 28 29 29 30 30 30 30 30 31 31 31 32 32 32 32 32 31 31 31 30 30 30 30 30 30 30 30 30 30
25 26 26 26 26 26 26 26 26 26 27 28 29 29 29 30 30 30 31 31 32 32 32 33 33 33 32 32 33 33 33 32 31 30 30 30 30 30 30 30 30 30 30
26 26 26 27 27 27 26 27 28 28 29 30 30 31 31 30 31 31 32 32 33 33 33 33 33 33 33 33 34 34 33 31 30 30 30 29 30 30 30 30 30 30 30
28 28 27 27 27 27 28 28 29 29 29 30 30 31 31 31 31 31 32 32 33 33 33 34 34 33 34 34 34 33 32 31 31 31 30 30 30 30 31 31 31 31 31
30 30 29 29 28 29 29 29 29 30 30 31 31 31 31 31 31 32 32 32 33 33 33 34 34 34 34 34 33 33 32 32 32 31 31 31 31 31 31 31 31 31 31
31 31 30 30 30 30 30 30 29 30 31 31 31 31 31 31 32 33 33 33 34 34 34 34 35 35 34 34 34 34 33 32 31 31 31 31 30 31 31 31 31 31 31
32 31 31 31 31 31 31 31 31 31 32 33 32 31 31 32 32 33 34 35 35 35 35 35 35 34 33 33 34 33 32 32 31 31 31 31 30 30 30 31 31 31 31
31 31 31 31 31 31 32 32 33 33 33 32 31 31 31 32 33 34 34 34 34 35 35 35 34 34 33 32 32 32 32 32 32 32 31 31 32 32 31 31 31 31 31
Wind_Direction
349 354 355 355 353 354 354 356 353 351 351 352 351 353 353 353 357 358 358 357 352 348 350 353 357 359 1 6 5 3 6 356 343 333 327 323 326 326 321 321 321 321 322
335 341 344 344 343 344 345 345 347 350 348 348 346 348 350 352 350 349 350 350 350 348 347 348 348 350 350 351 348 347 345 339 330 323 316 314 313 308 310 313 313 311 315
331 334 335 337 336 337 336 336 337 338 338 339 342 345 350 349 348 346 346 347 348 346 341 335 334 334 335 335 333 332 328 325 324 317 313 308 304 302 301 303 305 305 306
322 326 328 330 330 331 328 327 330 330 329 333 334 336 338 340 341 340 340 341 340 338 333 330 323 317 318 320 318 318 316 312 309 307 304 302 304 303 301 301 301 303 305
319 315 316 319 322 324 323 323 322 322 322 323 325 325 325 326 328 330 332 332 332 332 329 325 317 309 308 310 311 309 306 305 302 300 299 298 299 299 302 302 299 300 302
313 313 311 312 313 317 319 317 316 315 315 316 316 318 318 316 319 321 323 323 322 322 323 323 317 312 312 310 308 306 303 301 300 299 297 296 298 300 298 298 296 297 298
312 311 312 311 309 310 313 316 314 313 314 313 313 312 312 312 310 312 313 315 316 315 314 313 311 309 308 307 305 304 302 301 300 298 295 293 293 296 296 295 293 293 295
307 306 306 306 308 309 310 312 312 311 310 309 309 309 309 309 308 307 307 308 310 310 308 306 306 304 305 306 306 303 302 300 300 299 298 296 294 293 292 292 292 291 293
301 302 302 300 303 306 308 308 308 306 304 302 304 306 307 308 308 306 304 306 308 308 305 303 301 298 300 302 303 303 300 298 298 298 298 299 297 294 295 293 291 290 292
301 302 301 301 300 303 303 303 304 305 304 303 302 302 303 304 303 303 303 306 309 308 305 302 301 300 300 301 304 305 304 300 299 298 297 296 294 294 294 293 292 291 291
299 296 296 297 299 299 299 300 301 302 303 302 301 302 301 300 300 302 302 303 307 307 305 303 302 303 302 300 300 301 301 300 299 299 300 299 297 294 291 288 287 287 288
296 297 295 295 296 296 297 298 299 300 300 301 301 301 301 300 299 299 299 301 303 302 302 300 300 302 299 298 299 300 301 300 299 298 297 296 295 293 289 287 287 286 287
293 293 295 295 294 294 294 296 297 298 299 299 298 297 297 298 298 298 299 299 300 301 299 296 297 299 298 296 297 297 297 297 297 296 295 294 294 292 291 290 287 286 286
291 289 291 294 293 292 293 295 296 297 298 298 297 296 296 296 296 297 298 298 298 298 297 294 295 296 297 295 295 296 294 294 295 296 294 293 293 292 288 289 289 286 285
289 290 291 291 291 291 292 293 294 296 297 297 297 296 295 296 296 295 295 297 296 295 295 295 294 294 295 295 295 295 293 292 293 294 294 293 292 291 288 286 288 288 286
287 289 289 289 289 289 291 292 292 294 295 296 296 297 297 297 297 296 296 295 295 293 293 294 295 294 293 294 294 294 293 292 292 292 291 290 289 288 287 285 285 285 285
283 287 287 287 287 287 289 292 293 292 293 293 294 296 296 296 296 295 295 294 294 294 293 292 295 295 294 294 294 294 293 291 292 292 290 288 287 286 285 285 285 284 284
282 284 285 286 286 286 288 290 291 291 291 292 293 295 295 295 296 296 294 293 293 293 293 293 294 294 293 293 294 294 293 291 291 292 290 288 287 285 286 286 285 285 284
280 282 284 285 286 287 288 289 289 291 292 292 293 294 294 294 295 295 294 293 292 291 291 292 292 291 292 293 293 293 291 290 290 290 288 287 287 286 285 286 286 287 286
278 281 283 284 284 286 287 288 289 291 292 293 293 293 294 294 294 294 294 292 291 291 291 291 291 291 292 293 293 292 290 291 291 290 288 288 288 286 286 286 287 287 286
280 282 283 284 284 286 286 288 291 291 292 293 293 293 293 293 294 294 293 293 292 292 292 292 292 292 293 292 292 290 291 292 292 290 289 288 287 287 287 288 288 288 286
279 281 283 284 285 285 285 287 290 292 293 293 293 292 293 293 293 294 294 294 293 291 291 292 292 291 292 291 291 291 291 291 291 290 289 288 288 288 288 289 289 287 286
278 280 282 283 282 284 286 286 288 290 292 293 293 293 293 293 294 295 295 294 294 292 292 292 291 292 291 291 291 290 290 290 291 290 288 287 288 288 289 289 289 287 287
277 278 280 281 283 285 286 287 287 288 290 292 292 293 294 293 293 294 295 295 295 293 293 293 293 293 292 290 289 288 288 289 289 289 288 287 288 288 288 288 288 288 288
275 276 278 280 283 284 286 287 288 290 291 292 291 292 294 294 294 295 295 295 295 294 293 293 293 293 292 289 289 288 288 288 287 289 289 289 288 288 288 288 287 286 286
275 276 278 280 282 284 285 288 289 291 293 293 293 294 295 295 295 295 295 294 294 294 294 294 293 293 292 290 289 288 287 288 288 288 289 289 288 289 288 288 286 285 284
Height
5904 5902 5901 5900 5899 5898 5897 5895 5894 5893 5892 5891 5890 5889 5888 5887 5887 5886 5885 5884 5884 5883 5883 5882 5882 5881 5880 5880 5880 5879 5879 5879 5879 5879 5879 5878 5878 5878 5878 5877 5877 5877 5876
5904 5902 5902 5900 5899 5898 5897 5896 5894 5893 5892 5891 5890 5889 5889 5888 5887 5886 5885 5884 5884 5883 5882 5882 5882 5881 5880 5880 5879 5879 5879 5878 5878 5878 5878 5878 5878 5877 5877 5876 5876 5875 5874
5904 5902 5901 5900 5899 5898 5897 5895 5894 5893 5892 5891 5890 5889 5888 5888 5887 5886 5885 5884 5883 5882 5882 5881 5881 5880 5880 5879 5879 5878 5878 5877 5877 5877 5876 5875 5876 5875 5875 5874 5874 5873 5872
5903 5902 5900 5900 5899 5898 5896 5895 5894 5893 5892 5891 5890 5889 5888 5887 5887 5886 5885 5883 5882 5882 5881 5880 5879 5879 5878 5878 5877 5877 5876 5876 5875 5875 5874 5874 5873 5873 5872 5872 5871 5871 5870
5902 5901 5900 5899 5898 5897 5896 5894 5893 5892 5891 5890 5889 5888 5887 5886 5886 5885 5884 5883 5882 5881 5880 5879 5878 5877 5876 5876 5875 5875 5874 5873 5873 5872 5872 5871 5871 5870 5870 5870 5869 5868 5868
5901 5899 5899 5898 5897 5896 5895 5894 5893 5891 5890 5890 5888 5887 5886 5885 5884 5883 5883 5882 5881 5879 5878 5877 5876 5875 5874 5874 5873 5872 5871 5871 5870 5869 5869 5868 5868 5867 5867 5866 5866 5865 5865
5899 5898 5897 5896 5895 5894 5893 5892 5891 5890 5889 5888 5887 5886 5884 5883 5882 5882 5881 5880 5879 5878 5877 5875 5874 5873 5872 5871 5870 5869 5868 5867 5866 5866 5865 5865 5864 5864 5863 5863 5862 5862 5861
5898 5897 5896 5894 5894 5893 5891 5890 5889 5888 5887 5886 5885 5884 5882 5881 5880 5879 5878 5877 5876 5875 5873 5872 5871 5870 5869 5868 5867 5866 5865 5864 5863 5862 5861 5861 5860 5860 5859 5859 5858 5857 5857
5896 5895 5894 5892 5891 5891 5890 5888 5887 5886 5885 5884 5883 5881 5880 5879 5878 5877 5876 5874 5873 5871 5870 5869 5867 5866 5865 5864 5863 5862 5861 5860 5859 5858 5858 5857 5856 5855 5854 5854 5853 5852 5852
5893 5892 5891 5890 5889 5888 5887 5886 5885 5884 5882 5881 5879 5878 5877 5876 5875 5874 5872 5871 5869 5868 5866 5865 5864 5862 5861 5860 5859 5858 5857 5856 5855 5854 5853 5853 5852 5851 5850 5849 5848 5847 5847
5890 5889 5888 5887 5886 5886 5884 5883 5882 5881 5879 5878 5876 5875 5874 5873 5872 5870 5869 5868 5866 5864 5863 5861 5860 5859 5857 5856 5855 5854 5853 5852 5851 5850 5849 5848 5847 5846 5845 5844 5843 5842 5841
5887 5886 5885 5884 5883 5882 5881 5880 5878 5877 5876 5874 5873 5872 5870 5869 5868 5866 5865 5864 5862 5860 5859 5857 5856 5854 5853 5852 5851 5850 5849 5847 5846 5845 5844 5842 5841 5840 5838 5838 5837 5836 5835
5883 5882 5881 5880 5879 5878 5877 5876 5874 5873 5872 5870 5869 5868 5866 5865 5863 5862 5861 5859 5858 5856 5854 5852 5851 5850 5848 5847 5845 5844 5843 5842 5841 5839 5838 5836 5835 5834 5832 5831 5830 5830 5829
5879 5877 5876 5876 5875 5874 5873 5871 5870 5869 5867 5866 5864 5863 5862 5860 5859 5857 5856 5854 5853 5851 5849 5848 5846 5845 5843 5842 5840 5839 5837 5836 5835 5833 5832 5830 5828 5827 5826 5825 5824 5822 5821
5875 5873 5872 5871 5870 5869 5868 5867 5865 5864 5863 5861 5859 5858 5857 5855 5854 5852 5850 5849 5847 5845 5844 5842 5841 5839 5837 5836 5834 5833 5831 5829 5828 5826 5825 5823 5822 5820 5819 5818 5817 5816 5814
5870 5869 5867 5866 5865 5864 5863 5862 5860 5859 5858 5856 5854 5853 5851 5850 5848 5846 5845 5843 5841 5840 5838 5836 5834 5833 5831 5829 5827 5826 5824 5822 5821 5819 5818 5816 5815 5813 5812 5810 5809 5808 5807
5864 5863 5862 5861 5860 5859 5857 5856 5855 5854 5852 5851 5849 5847 5846 5844 5842 5840 5838 5837 5835 5833 5831 5829 5827 5826 5824 5822 5820 5818 5816 5815 5813 5811 5809 5808 5807 5806 5804 5803 5801 5800 5798
5858 5857 5856 5855 5854 5852 5851 5850 5849 5848 5846 5845 5843 5841 5839 5837 5835 5833 5831 5829 5827 5826 5824 5822 5820 5818 5816 5815 5813 5811 5809 5807 5805 5803 5801 5800 5799 5797 5796 5794 5793 5791 5790
5852 5851 5850 5848 5847 5846 5845 5844 5843 5841 5840 5838 5836 5834 5832 5830 5828 5826 5823 5821 5819 5818 5816 5814 5812 5810 5808 5806 5804 5802 5800 5798 5797 5794 5793 5791 5790 5788 5787 5785 5784 5783 5781
5844 5844 5843 5842 5841 5840 5838 5837 5836 5834 5833 5831 5829 5827 5824 5822 5820 5818 5815 5813 5811 5809 5807 5805 5803 5801 5800 5798 5796 5793 5791 5790 5788 5786 5784 5782 5781 5779 5778 5777 5775 5774 5772
5838 5838 5837 5836 5834 5833 5832 5830 5829 5827 5825 5823 5821 5819 5816 5814 5812 5809 5807 5804 5802 5800 5798 5796 5794 5792 5791 5789 5786 5784 5782 5781 5779 5777 5776 5774 5772 5771 5769 5768 5766 5765 5763
5832 5831 5830 5829 5828 5826 5825 5823 5821 5819 5817 5815 5813 5810 5808 5805 5803 5801 5798 5795 5792 5790 5788 5786 5785 5783 5781 5780 5777 5775 5773 5771 5770 5768 5767 5765 5763 5762 5760 5759 5757 5755 5754
5824 5823 5823 5822 5820 5819 5817 5816 5814 5812 5809 5807 5805 5802 5799 5797 5794 5792 5789 5786 5783 5781 5779 5777 5775 5774 5772 5770 5768 5766 5764 5762 5760 5759 5757 5756 5754 5753 5751 5750 5748 5746 5744
5816 5815 5815 5814 5812 5811 5809 5807 5806 5803 5801 5798 5796 5793 5791 5788 5786 5783 5780 5778 5775 5772 5770 5768 5766 5764 5762 5760 5758 5756 5755 5753 5751 5750 5748 5747 5745 5744 5742 5740 5738 5737 5735
5808 5807 5807 5806 5804 5803 5801 5799 5797 5795 5793 5790 5787 5785 5782 5780 5777 5774 5772 5769 5766 5763 5761 5758 5756 5754 5752 5750 5748 5746 5745 5743 5742 5740 5739 5738 5736 5735 5733 5731 5729 5727 5726
5799 5799 5798 5797 5796 5794 5792 5791 5788 5786 5784 5781 5779 5776 5774 5771 5769 5766 5763 5760 5757 5755 5752 5749 5746 5744 5742 5740 5738 5737 5735 5734 5732 5731 5730 5728 5727 5725 5723 5722 5720 5718 5716